Regional Weather Roundup
Issued by NWS

Home | Current Version | Previous Version | Graphics & Text | Print | Product List | Glossary On
Versions: 1 2 3 4 5 6 7 8 9 10 11 12 13 14 15 16 17 18 19 20 21 22 23 24 25 26 27 28 29 30 31 32 33 34 35 36 37 38 39 40 41 42 43 44 45 46 47 48 49 50
000
ASUS43 KIND 220809
RWRIN

WEATHER ROUNDUP FOR INDIANA
NATIONAL WEATHER SERVICE INDIANAPOLIS IN
400 AM EDT FRI MAY 22 2015

NOTE: "FAIR" INDICATES FEW OR NO CLOUDS BELOW 12,000 FEET WITH NO
SIGNIFICANT WEATHER AND/OR OBSTRUCTIONS TO VISIBILITY.

* - STATION DOES NOT REPORT WEATHER SUCH AS PRECIPITATION OR FOG.

+ - STATION NOT QUALITY CONTROLLED BY THE NATIONAL WEATHER SERVICE.
    USE DATA WITH CAUTION...ESPECIALLY DEWPOINT AND RELATIVE
    HUMIDITY OBSERVATIONS.

INZ001>003-010>013-019-020-220900-
NORTHWEST INDIANA

CITY           SKY/WX    TMP DP  RH WIND       PRES   REMARKS
GARY /AIRPORT/ CLEAR     53  44  70 SE3       30.06S
KNOX *+        MOCLDY    50  41  71 N5        30.08R
LA PORTE +     PTCLDY    52  42  68 SW5       30.07F
MICHIGAN CITY+ PTCLDY    46  39  76 S3        30.07S
MONTICELLO +   CLEAR     50  41  70 SW8       30.07F
RENSSELAER +   CLEAR     50  43  76 SW7       30.07F
VALPARAISO     PTCLDY    54  41  61 W5        30.07R

$$

LMZ046-743>745-220900-
SOUTHERN LAKE MICHIGAN

STATION/POSITION TIME  TEMP    WIND        PRES    WAVE
                       AIR SEA DIR/SP/G            HT
                 (UTC) (F)     (DEG/KT/KT) (MB)    (FT)
BURNS HARBOR     0800   58     210/  1/  4 1018.3S
MICHIGAN CITY    0800   56     170/  4/  7   N/A
5NW MICH CITY    0800   53 51  210/  6/  6   N/A     1

$$

INZ004-005-014>016-021>024-220900-
NORTH CENTRAL INDIANA

CITY           SKY/WX    TMP DP  RH WIND       PRES   REMARKS
GOSHEN         MOCLDY    50  40  68 W3        30.07R
LOGANSPORT +   CLEAR     45  37  76 SW8       30.09S
PERU/GRISSOM   CLEAR     51  40  67 W10       30.07S
ROCHESTER +    PTCLDY    52  41  66 W7        30.07S
SOUTH BEND     CLOUDY    53  40  61 S6        30.07S
WARSAW +       PTCLDY    48  37  66 NW5       30.09R

$$

INZ006>009-017-018-025>027-220900-
NORTHEAST INDIANA

CITY           SKY/WX    TMP DP  RH WIND       PRES   REMARKS
ANGOLA *+      MOCLDY    54  39  58 W8        30.06R
AUBURN +       CLOUDY    50  36  57 W5        30.07R
FORT WAYNE     PTCLDY    49  40  71 W9        30.07S
HUNTINGTON +   CLEAR     48  39  70 W7        30.07S

$$

INZ028-029-035-036-043>045-051>053-220900-
WEST CENTRAL INDIANA

CITY           SKY/WX    TMP DP  RH WIND       PRES   REMARKS
CRAWFORDSVL +  CLEAR     45  37  74 SW6       30.12R
GREENCASTLE +  CLEAR     45  37  76 CALM      30.14R
LAFAYETTE      CLEAR     46  41  82 W3        30.10S
TERRE HAUTE    CLEAR     48  42  80 SW7       30.15R

$$

INZ030>032-037>040-046>048-054>057-064-065-220900-
CENTRAL INDIANA

CITY           SKY/WX    TMP DP  RH WIND       PRES   REMARKS
CP ATTERBURY + CLEAR     45  41  87 W3        30.14S
FISHERS *+     CLEAR     45  41  87 SW5       30.12
FRANKFORT +    CLEAR     46  41  81 SW7       30.12S
GREENWOOD *+   CLEAR     46  39  76 SW5       30.13S
INDIANAPOLIS   CLEAR     45  40  82 SW7       30.11R
-EAGLE CREEK   CLEAR     48  41  76 SW3       30.11S
KOKOMO *+      CLEAR     48  39  71 W9        30.09S
MARION +       CLEAR     47  38  70 SW7       30.10S
MT COMFORT *+  CLEAR     46  37  71 W8        30.12S
SHELBYVILLE    CLEAR     47  41  80 SW5       30.12S
ZIONSVILLE +   FAIR      49  39  68 W6        30.11S

$$

INZ033-034-041-042-049-050-058-059-220900-
EAST CENTRAL INDIANA

CITY           SKY/WX    TMP DP  RH WIND       PRES   REMARKS
MUNCIE         CLEAR     50  40  68 SW8       30.10S

$$

INZ060-061-067>069-081>083-085>088-220900-
SOUTHWEST INDIANA

CITY           SKY/WX    TMP DP  RH WIND       PRES   REMARKS
EVANSVILLE     CLEAR     46  43  89 W5        30.20S
HUNTINGBURG *+ CLEAR     45  39  81 CALM      30.19S
WASHINGTON +   CLEAR     48  42  79 W6        30.17R

$$

INZ062-063-066-070>080-084-089>092-220900-
SOUTH CENTRAL AND SOUTHEAST INDIANA

CITY           SKY/WX    TMP DP  RH WIND       PRES   REMARKS
BLOOMINGTON    CLEAR     49  42  77 W7        30.15R
MADISON *+     CLEAR     43  39  87 CALM      30.17S
NORTH VERNON + CLEAR     43  43 100 CALM      30.15S
SEYMOUR +      CLEAR     48  41  76 SW3       30.15R

$$




USA.gov is the U.S. government's official web portal to all federal, state and local government web resources and services.